Location: Unspecified
(0.0000°N, 0.0000°E)
Time: 20:24:12
(UTC+00:00)

deb OV3-4 - Pass Details

Date: 20 April 2026
Orbit: 581 x 4210 km, 40.6° (Epoch: 13 May)

Event Time Altitude Azimuth Distance (km) Brightness Sun altitude
Exits shadow 04:53:41 - 204° (SSW) 3,830 ? -16.0°
Reaches altitude 10° 04:55:53 10° 195° (SSW) 3,248 ? -15.5°
Maximum altitude 05:03:39 38° 128° (SE) 2,648 ? -13.6°
Drops below altitude 10° 05:17:52 10° 66° (ENE) 5,922 ? -10.1°
Sets 05:24:08 0° 60° (ENE) 7,501 ? -8.5°
